Wind_Speed
28 28 29 29 28 28 27 26 25 25 26 24 21 19 19 25 28 27 26 26 26 26 28 28 27 28 28 29 30 31 32 33 34 34 36 37 38 40 41 43 44 45 46 47
26 27 28 29 29 28 27 27 26 26 26 25 21 18 21 24 26 28 28 28 28 29 30 30 30 30 31 32 33 34 35 36 37 38 40 40 42 43 45 46 48 49 49 50
21 22 24 25 25 26 26 27 26 26 25 24 23 16 19 23 26 28 29 30 30 30 32 33 33 33 33 34 35 37 38 39 40 42 43 44 45 46 47 49 51 52 53 54
17 18 20 21 23 24 24 26 26 26 26 25 25 21 19 23 25 28 29 30 31 32 33 34 35 35 36 37 39 40 41 43 44 46 47 48 49 49 51 53 54 55 57 57
16 16 17 19 21 23 24 26 27 27 27 26 26 25 22 24 25 27 29 30 31 32 34 35 36 37 39 40 42 43 45 46 48 49 50 51 52 53 55 56 57 58 60 60
17 18 18 19 21 24 25 27 28 28 28 27 27 26 24 26 26 27 29 31 31 32 33 35 37 38 40 42 44 46 48 49 51 52 54 55 56 57 59 59 60 61 62 62
18 20 21 22 24 25 27 29 31 32 30 29 28 28 25 28 30 31 31 31 32 32 33 34 36 38 41 43 46 48 50 51 53 55 56 57 59 60 61 62 63 64 64 64
20 21 22 24 25 27 28 30 32 35 35 33 31 29 27 30 32 33 34 35 35 35 35 36 37 39 41 43 46 48 50 52 54 55 57 59 60 62 63 64 65 66 66 66
24 24 24 26 27 29 30 31 34 37 39 38 36 33 28 30 33 36 39 40 39 38 38 38 39 40 41 43 45 47 50 52 54 55 57 59 61 62 63 64 65 66 66 66
28 28 26 27 29 30 32 34 36 38 41 44 43 38 33 34 37 39 41 42 41 40 41 41 41 42 42 44 46 47 49 51 53 55 57 58 60 61 63 64 64 65 65 66
31 31 30 30 30 32 33 34 37 39 41 45 48 46 39 39 40 43 45 45 44 43 43 43 43 43 44 45 46 47 49 50 52 54 55 57 59 61 62 63 63 64 65 65
33 35 35 34 34 35 37 38 39 41 44 46 50 50 41 41 45 49 50 49 48 47 47 46 45 45 45 46 46 48 49 50 51 52 53 55 57 58 59 60 62 63 64 64
36 38 39 38 37 38 40 40 41 43 46 48 50 50 46 46 49 52 53 52 51 50 49 49 48 48 48 48 48 48 48 49 49 50 52 53 54 56 57 59 60 62 63 65
38 38 39 40 39 41 43 42 42 43 45 48 49 49 46 48 51 52 52 52 52 52 51 50 50 50 49 48 48 48 48 49 49 49 50 51 53 55 57 59 60 61 63 64
38 39 38 39 39 41 42 41 41 43 44 47 46 47 47 50 51 51 51 51 51 52 52 52 51 50 49 48 48 48 48 48 48 49 50 52 54 56 57 59 60 60 61 61
36 38 38 37 37 39 39 37 38 40 42 44 45 45 45 48 49 50 50 50 51 51 51 51 50 48 48 48 48 48 48 49 50 51 52 53 54 55 56 56 57 57 57 57
32 34 36 35 35 36 35 34 36 37 38 40 41 43 44 45 46 47 48 49 50 50 49 49 48 47 47 47 48 48 49 50 51 52 52 53 53 53 54 54 55 55 55 56
31 32 35 35 36 36 34 34 35 37 37 38 39 41 43 44 45 46 47 48 48 47 47 47 46 46 47 48 49 49 50 51 51 51 51 51 51 52 53 53 53 53 54 55
30 32 35 36 38 38 34 36 38 38 38 38 39 40 42 43 44 44 45 46 46 47 47 47 47 47 48 48 49 48 49 50 50 50 50 50 51 51 51 52 52 53 54 54
30 32 34 36 38 39 38 39 40 41 41 41 41 42 43 44 45 44 45 46 46 47 48 49 48 49 49 49 49 48 49 49 49 49 49 49 50 51 51 52 53 53 54 55
33 34 36 38 40 40 41 43 43 44 45 45 45 46 46 47 48 48 48 48 48 48 49 49 49 49 50 50 49 49 49 49 49 49 49 50 51 51 52 52 52 54 55 56
36 38 39 41 43 43 45 46 47 48 48 48 49 50 50 50 51 51 51 51 51 51 51 51 50 50 50 50 49 49 49 49 49 49 50 50 51 51 52 53 54 55 56 57
40 41 43 45 45 46 48 50 51 52 52 52 53 53 54 54 54 54 54 54 54 53 53 53 52 50 50 50 51 50 50 50 50 50 50 50 52 53 54 55 56 56 57 57
44 44 46 49 48 49 52 53 54 55 55 56 56 57 58 58 58 57 57 57 56 56 55 54 53 51 51 52 52 53 52 51 51 50 51 52 53 54 55 56 56 56 57 57
47 48 51 53 54 55 56 56 57 58 59 59 59 60 60 60 60 60 59 59 58 57 56 55 54 53 52 52 52 53 52 51 51 51 52 53 53 54 55 55 56 57 57 58
48 51 57 58 58 60 60 61 62 62 62 62 62 63 63 63 62 62 61 60 59 58 57 56 55 54 53 53 53 53 53 52 52 52 52 53 54 54 55 56 56 57 57 57
Wind_Direction
269 273 275 278 282 286 289 291 292 294 297 300 303 305 292 283 283 281 279 276 274 271 269 271 271 270 270 270 270 270 272 273 276 279 281 285 288 291 294 296 298 300 302 304
273 276 277 280 282 285 288 289 291 293 296 299 302 309 299 290 287 285 282 279 277 273 271 270 269 268 269 269 269 270 271 273 276 278 280 284 287 290 292 294 296 298 300 302
279 279 281 283 286 287 290 291 292 294 296 300 301 306 301 296 292 288 285 282 279 276 273 272 271 269 269 269 269 269 271 273 276 278 280 283 285 288 291 292 295 297 299 300
287 287 289 290 291 292 294 293 295 296 299 302 303 305 304 300 297 293 289 286 283 280 277 275 274 272 271 270 271 272 273 274 276 277 280 282 285 288 289 291 294 296 297 298
293 294 295 296 296 297 297 296 296 297 299 302 303 305 307 300 298 295 292 289 287 284 281 279 277 275 274 274 274 274 274 275 277 278 281 283 286 287 289 291 293 294 296 297
294 296 297 297 298 298 298 298 297 297 299 300 302 304 307 301 298 296 294 293 291 289 287 284 282 280 278 278 277 277 278 278 279 280 283 285 286 287 289 291 292 293 295 296
292 294 296 297 297 297 298 299 300 300 300 301 303 306 310 306 303 300 297 295 293 292 291 289 288 286 284 282 281 281 281 281 282 283 285 286 287 288 290 291 291 292 294 294
292 293 294 296 296 297 298 299 300 301 302 302 303 305 311 308 303 300 297 296 294 294 294 294 292 290 288 286 285 285 285 284 285 285 286 287 287 288 289 290 291 292 293 293
294 294 295 296 297 297 297 298 299 300 300 301 301 303 307 305 300 298 296 296 297 298 298 296 295 293 292 290 288 287 286 285 285 286 286 286 287 288 288 289 290 291 291 291
293 294 295 296 296 297 298 299 300 300 302 303 302 303 310 306 301 297 296 296 299 299 298 297 295 294 293 291 289 288 287 286 286 286 286 286 287 287 288 288 290 290 290 291
293 294 295 296 297 297 297 298 298 299 300 301 302 303 312 307 302 298 297 298 299 298 297 296 295 294 293 291 290 289 288 287 287 286 286 286 286 286 287 288 289 290 291 292
292 294 296 296 297 297 296 297 298 299 300 300 300 303 309 305 300 298 299 300 300 299 299 298 296 295 294 293 292 291 290 289 288 288 287 286 286 287 288 289 290 290 291 293
292 294 296 297 298 297 297 298 299 299 299 299 299 302 305 302 299 299 301 302 302 301 301 300 299 298 297 296 294 294 293 293 292 291 290 289 289 289 289 290 290 291 292 294
291 293 295 297 299 298 297 298 298 298 298 297 299 301 302 300 299 300 301 302 302 301 300 300 299 299 298 297 296 296 296 296 295 295 294 293 292 292 292 292 292 292 293 294
292 294 295 296 297 296 297 300 301 300 299 299 302 301 303 300 301 302 302 302 301 300 300 299 299 299 299 298 298 297 297 297 297 297 296 295 295 294 293 293 293 293 294 294
292 294 295 296 296 296 299 303 301 298 299 300 301 302 300 301 302 303 303 302 301 301 300 300 300 299 299 299 298 298 298 297 297 297 296 296 296 295 294 294 294 294 294 294
294 295 296 298 298 299 302 304 301 300 300 300 301 301 301 303 304 304 304 304 304 303 303 301 300 299 299 299 298 298 297 297 297 297 297 297 296 296 296 295 295 295 295 295
297 297 298 301 302 303 308 306 304 303 304 303 302 303 304 305 305 306 306 307 306 305 303 302 300 299 299 299 299 299 299 298 298 298 298 298 297 297 297 297 297 296 296 296
296 297 299 301 302 305 307 305 305 306 306 305 306 307 308 309 309 309 310 310 309 308 305 303 301 300 300 300 300 300 299 299 299 299 299 299 299 299 299 298 298 297 297 298
294 296 298 300 301 305 309 306 306 306 306 307 309 309 310 310 310 311 310 309 309 307 305 304 302 301 300 299 299 299 299 300 300 300 299 300 300 300 299 298 298 298 298 299
296 297 298 299 300 304 304 303 304 304 306 308 308 309 309 310 310 310 309 308 307 306 305 303 302 301 299 299 298 298 299 300 300 300 300 300 300 300 300 300 299 298 299 300
295 296 297 298 299 302 300 301 302 302 303 304 305 306 306 307 307 307 307 307 307 306 305 304 302 301 300 299 299 298 298 299 300 300 300 299 299 300 300 300 300 300 300 300
292 294 296 297 298 299 298 298 300 300 301 302 302 302 303 304 304 304 304 305 305 305 304 304 302 301 300 299 299 298 299 299 299 299 299 299 299 300 300 301 301 301 301 301
292 294 294 293 294 293 293 295 296 297 298 299 300 300 301 301 302 302 303 303 303 304 303 303 302 301 300 299 299 298 298 298 299 299 299 299 300 301 301 302 302 302 302 302
294 294 291 290 291 291 292 293 294 295 295 296 296 297 298 299 300 300 301 302 302 303 303 302 302 301 300 299 298 298 299 299 299 300 300 301 301 302 303 303 303 304 303 304
295 292 289 290 290 291 292 293 293 293 294 294 295 296 297 298 298 299 300 301 302 302 302 302 302 301 300 299 298 298 299 299 300 300 300 302 303 303 303 304 304 305 305 305
Height
5858 5859 5857 5856 5855 5854 5852 5851 5850 5847 5845 5844 5843 5841 5838 5833 5831 5830 5828 5827 5825 5824 5822 5821 5820 5819 5818 5817 5815 5813 5812 5810 5807 5805 5802 5800 5796 5793 5789 5785 5780 5776 5772 5767
5854 5853 5852 5850 5849 5848 5846 5845 5844 5843 5840 5839 5838 5837 5831 5827 5825 5823 5821 5819 5818 5817 5815 5813 5812 5811 5810 5809 5807 5805 5803 5801 5799 5796 5793 5791 5787 5784 5779 5775 5770 5766 5762 5757
5848 5848 5846 5845 5843 5842 5841 5839 5838 5837 5835 5834 5833 5834 5828 5823 5819 5816 5814 5812 5810 5809 5807 5806 5805 5803 5802 5800 5798 5796 5794 5791 5789 5786 5783 5780 5777 5773 5769 5764 5759 5755 5750 5745
5844 5843 5842 5840 5838 5837 5836 5834 5832 5831 5829 5828 5827 5826 5824 5818 5813 5810 5807 5805 5803 5801 5799 5798 5796 5795 5793 5791 5788 5786 5784 5781 5779 5775 5773 5769 5766 5762 5758 5753 5749 5743 5738 5733
5839 5839 5837 5836 5834 5832 5830 5828 5827 5825 5823 5823 5821 5819 5819 5813 5809 5804 5800 5798 5796 5794 5792 5790 5788 5786 5784 5782 5779 5777 5774 5771 5768 5764 5761 5758 5755 5751 5746 5742 5737 5731 5725 5720
5835 5834 5833 5832 5830 5827 5825 5823 5821 5820 5818 5818 5815 5813 5811 5806 5802 5798 5794 5791 5788 5786 5784 5782 5779 5777 5775 5772 5770 5767 5764 5761 5757 5753 5750 5747 5743 5738 5734 5729 5724 5718 5713 5707
5832 5830 5828 5827 5825 5823 5820 5818 5815 5812 5811 5811 5808 5806 5805 5799 5794 5790 5787 5784 5781 5779 5777 5774 5771 5768 5766 5763 5760 5757 5754 5750 5747 5743 5739 5735 5730 5725 5721 5716 5710 5704 5699 5693
5827 5826 5824 5822 5820 5817 5815 5812 5809 5805 5803 5802 5801 5799 5799 5793 5787 5782 5779 5776 5774 5772 5769 5766 5763 5760 5757 5754 5750 5747 5743 5739 5735 5731 5727 5722 5717 5712 5707 5701 5695 5689 5684 5677
5821 5821 5819 5816 5814 5812 5809 5806 5803 5798 5794 5793 5793 5792 5793 5787 5780 5775 5771 5767 5765 5763 5760 5757 5754 5750 5747 5743 5739 5735 5731 5727 5722 5718 5713 5708 5703 5697 5692 5686 5679 5674 5667 5661
5814 5814 5813 5811 5808 5805 5802 5799 5796 5791 5786 5782 5781 5782 5784 5778 5772 5767 5762 5758 5757 5755 5751 5747 5743 5739 5735 5731 5727 5723 5718 5714 5709 5704 5699 5694 5688 5682 5676 5670 5664 5658 5651 5645
5807 5806 5806 5804 5802 5799 5796 5793 5788 5784 5780 5775 5769 5771 5773 5767 5760 5755 5751 5749 5747 5744 5740 5736 5732 5728 5723 5719 5714 5709 5704 5699 5694 5689 5684 5678 5673 5666 5660 5654 5648 5642 5635 5629
5800 5798 5797 5796 5794 5791 5787 5785 5781 5778 5772 5766 5760 5761 5762 5756 5748 5742 5739 5736 5734 5730 5727 5723 5719 5715 5710 5706 5701 5696 5691 5685 5680 5674 5669 5663 5657 5651 5645 5639 5633 5626 5620 5614
5792 5790 5787 5786 5787 5782 5778 5775 5772 5768 5763 5757 5751 5752 5750 5744 5735 5730 5726 5722 5719 5716 5712 5708 5704 5700 5696 5691 5686 5681 5676 5671 5665 5659 5653 5648 5642 5635 5630 5624 5618 5611 5605 5598
5783 5781 5780 5777 5775 5771 5767 5765 5763 5758 5753 5747 5743 5740 5739 5732 5724 5720 5715 5710 5706 5702 5698 5694 5690 5686 5681 5676 5672 5667 5661 5656 5650 5644 5638 5632 5626 5620 5614 5608 5602 5596 5589 5583
5773 5771 5770 5767 5765 5760 5757 5755 5752 5747 5742 5736 5733 5728 5725 5717 5712 5707 5703 5698 5694 5689 5684 5680 5675 5671 5666 5662 5657 5652 5646 5641 5635 5630 5624 5618 5612 5605 5599 5592 5586 5580 5573 5566
5764 5762 5760 5758 5755 5750 5747 5747 5742 5736 5732 5726 5722 5718 5713 5706 5701 5696 5691 5685 5680 5675 5671 5666 5661 5656 5652 5647 5642 5638 5632 5627 5621 5615 5609 5603 5596 5590 5583 5576 5570 5564 5557 5551
5756 5753 5750 5748 5745 5741 5740 5738 5732 5727 5723 5718 5712 5708 5701 5696 5690 5685 5679 5674 5668 5663 5658 5653 5648 5643 5638 5633 5628 5623 5618 5612 5606 5600 5594 5588 5581 5575 5568 5562 5555 5549 5542 5535
5747 5744 5740 5738 5736 5732 5733 5727 5722 5717 5713 5708 5703 5698 5692 5686 5681 5674 5669 5663 5657 5651 5646 5640 5635 5630 5625 5620 5614 5609 5603 5597 5592 5586 5580 5574 5567 5560 5553 5547 5540 5534 5527 5520
5739 5735 5732 5729 5724 5722 5723 5717 5711 5706 5703 5698 5692 5687 5682 5676 5671 5665 5658 5651 5645 5639 5634 5628 5623 5617 5612 5607 5601 5595 5589 5583 5577 5572 5566 5559 5553 5546 5539 5532 5526 5519 5512 5505
5732 5728 5725 5720 5714 5712 5712 5705 5699 5696 5692 5687 5682 5677 5671 5665 5660 5656 5648 5642 5635 5628 5622 5616 5610 5604 5599 5593 5588 5582 5576 5570 5564 5558 5552 5545 5538 5532 5525 5518 5511 5504 5498 5491
5722 5719 5716 5710 5705 5703 5700 5694 5689 5686 5682 5676 5670 5665 5660 5654 5648 5643 5636 5630 5624 5617 5611 5604 5598 5592 5586 5580 5575 5569 5563 5557 5551 5544 5538 5531 5524 5517 5510 5503 5496 5489 5483 5476
5711 5708 5705 5701 5697 5695 5688 5682 5678 5675 5669 5664 5659 5654 5649 5643 5637 5631 5624 5618 5611 5604 5598 5591 5585 5579 5573 5567 5561 5556 5550 5544 5537 5531 5524 5517 5510 5503 5496 5489 5482 5474 5467 5460
5701 5699 5694 5691 5689 5682 5675 5670 5666 5661 5657 5652 5647 5642 5636 5631 5625 5619 5612 5606 5599 5592 5585 5579 5572 5566 5559 5553 5547 5542 5536 5530 5524 5517 5510 5503 5496 5489 5482 5475 5467 5460 5452 5444
5690 5687 5683 5678 5676 5669 5663 5658 5654 5649 5644 5639 5633 5628 5622 5617 5611 5605 5599 5592 5586 5579 5572 5566 5559 5553 5547 5540 5533 5527 5522 5516 5510 5503 5496 5489 5482 5475 5467 5460 5452 5444 5437 5429
5678 5674 5667 5663 5661 5655 5651 5645 5641 5636 5630 5625 5620 5614 5608 5603 5597 5591 5585 5578 5572 5565 5558 5552 5545 5539 5533 5527 5520 5513 5508 5502 5496 5489 5482 5475 5468 5461 5453 5445 5437 5430 5422 5413
5665 5657 5650 5649 5645 5640 5637 5630 5625 5620 5615 5610 5605 5599 5593 5588 5582 5576 5570 5564 5557 5551 5544 5538 5531 5525 5519 5513 5506 5500 5494 5488 5481 5475 5468 5461 5454 5446 5439 5432 5424 5415 5407 5399